Vertical_Velocity
2 2 3 2 2 5 7 4 2 4 2 1 -2 -4 -5 -1 -1 2 2 -1 1 2 2 -0 2 -1 2 -0 3 -5 2 2 1 -2 2 2 1 -1 3 -1 -4 -1 0 -22
-6 -0 -1 -0 -0 2 9 2 2 2 3 -5 -2 -4 -4 -1 1 -1 2 2 1 0 2 -0 -0 2 0 0 2 5 -1 2 -0 1 0 -2 -7 -5 -0 -1 5 -3 4 -15
11 -4 2 1 -4 2 8 5 1 3 3 -3 4 4 -1 -4 -2 -2 2 2 2 3 0 -1 -1 0 1 2 1 1 4 2 -4 -10 0 1 -4 -3 2 9 4 0 -38 -4
0 14 1 2 -2 3 7 -2 -10 -9 -17 -11 -4 -0 -5 0 -6 3 4 -2 2 -4 -2 -1 -1 1 -2 -2 1 3 2 -3 1 -1 0 -0 -2 -3 -1 -7 2 -10 -17 -15
6 7 9 15 4 6 3 -4 -5 -2 -4 -0 7 -4 -8 -4 11 4 -4 -5 3 2 -5 -3 1 6 -0 3 2 3 -2 -6 -0 -5 1 -0 -9 -3 5 8 9 -16 4 -68
-6 19 10 18 12 7 -12 -7 1 6 6 7 -0 -13 1 -9 9 -6 -3 5 8 -15 -8 11 26 2 -5 2 -0 4 4 6 2 -17 1 4 -13 1 -5 -5 -4 11 -17 -48
9 1 5 27 24 -15 11 -2 17 7 -20 -8 -12 4 -3 -5 -10 1 5 9 3 -12 3 11 -8 2 4 -7 -4 -0 2 6 14 -4 4 5 -51 -3 6 -4 4 1 -13 -6
0 -5 -2 -9 29 39 15 11 -10 -8 -12 -9 3 -1 -5 -2 3 -18 7 -4 9 5 4 13 3 -8 -4 -0 -11 -7 1 10 3 -2 -1 -28 -48 9 -3 -5 -29 4 -12 1
-1 -3 9 -4 37 10 42 21 11 0 17 -82 52 -0 11 -5 -4 18 -32 12 5 3 3 5 1 -7 -10 2 -3 1 10 19 10 12 3 -5 -31 -11 1 13 -80 0 -9 -3
-4 1 -4 9 4 11 12 38 21 23 3 5 8 -13 -26 22 9 -15 4 10 5 14 4 5 -3 -10 -0 -8 -4 -5 1 9 -14 2 2 -31 7 11 10 5 -46 -6 -1 -6
2 1 3 5 5 -1 17 30 44 34 13 11 3 5 5 6 1 -1 -6 22 -0 18 19 6 -7 -5 -6 -4 4 -8 -6 -9 -5 20 17 -16 21 7 11 9 -3 1 1 3
4 4 2 -1 3 26 -3 3 -2 3 6 0 8 2 7 1 -0 1 3 0 1 10 24 -1 5 -8 3 -8 -17 16 0 -26 -19 -10 -30 4 6 2 6 6 -2 -2 1 2
20 4 1 -1 5 -8 -1 9 -1 32 -14 25 5 -4 2 9 7 6 0 2 13 2 2 12 6 2 3 -12 -32 27 0 8 -6 27 2 -7 1 1 5 5 9 6 1 0
9 13 3 2 2 1 6 -1 -4 -1 -7 14 -5 -8 -3 9 6 7 7 7 18 14 6 19 15 7 2 5 7 5 3 3 -2 7 11 11 12 9 10 4 5 7 5 3
-2 -1 1 -1 -1 0 3 6 6 3 3 -1 -7 -2 2 -7 3 -7 -2 -0 5 5 2 8 1 -3 7 3 9 3 2 -3 -2 -8 -3 5 1 -5 1 3 3 1 -0 1
5 2 -3 1 -2 -3 -3 -3 -1 -0 -1 -7 -3 -4 -7 18 6 -4 -1 1 3 -0 1 5 2 1 11 5 4 -7 -0 2 1 -6 5 1 -1 -5 -5 -4 -2 -2 1 -6
-6 -3 -3 -4 -2 -3 -1 -1 -3 -6 -3 3 1 1 -1 -8 -7 -5 -3 -1 -5 6 4 -6 -4 -0 7 15 -0 -8 -2 0 3 4 4 -3 1 -2 -2 -7 -12 -15 -7 -2
3 5 -0 -5 -3 -2 -2 -1 -2 -1 0 0 -1 -2 -2 2 1 -0 -1 0 3 -5 0 -1 1 7 9 -2 -7 -2 2 1 -0 4 3 0 1 0 -1 -6 -6 -5 -10 -5
1 -1 -1 -2 -1 -2 -3 -2 -3 -2 -1 -2 -1 1 -2 -3 -4 -0 1 1 -1 2 2 -3 6 1 2 -6 -1 -0 3 -2 0 -2 -4 -3 0 2 3 4 -1 -5 2 1
-1 -2 -2 -2 -2 0 0 -2 -1 -1 -2 2 -1 -0 -4 -0 -1 -4 0 -4 -1 4 0 9 5 8 -0 0 -0 1 2 1 2 3 2 1 3 2 3 -0 -2 -4 0 -3
-0 -1 -1 -1 -1 -0 -0 -2 -1 -1 -1 -0 -1 -3 -4 -4 -4 -3 -1 2 0 0 2 7 3 5 1 1 -0 -0 0 0 -0 4 3 2 2 -1 -1 -4 -6 -5 -4 -2
-1 -2 -2 -1 -1 -1 -1 -3 -2 -1 -1 -2 -3 -4 -2 -6 -3 -1 3 2 5 8 4 3 5 4 3 3 2 1 2 3 1 -1 1 -2 -2 -3 -1 -0 -2 -2 -2 -1
-0 -0 -1 -2 -2 -2 -3 -2 -2 -3 -4 -5 -5 -1 -2 -3 -2 -1 -0 1 4 1 4 1 -2 4 2 1 2 4 0 0 0 0 -2 -1 1 -2 -3 1 -3 -1 -2 -1
-3 -2 -3 -2 -3 -3 -3 -2 -2 -1 -2 -1 -2 -2 0 1 -0 1 1 1 -2 2 1 2 1 1 -1 -2 -1 -3 -0 -4 -2 -0 1 1 -0 1 -1 -1 3 2 1 2
-4 -1 -3 -4 -3 -4 -5 -5 -4 -4 -4 -4 -3 -2 -1 1 0 -1 -1 1 1 1 1 1 -0 -2 -5 -3 -2 0 -0 -0 -0 -4 -3 -2 -4 -5 -1 -6 -1 -1 -2 -2
-15 -8 -10 -8 -7 -5 -5 -5 -3 -3 -4 -3 -3 -0 -1 -1 -1 -1 0 1 0 1 -1 1 -3 -0 1 -4 -3 -2 -2 -0 -0 -1 -2 -2 -2 -3 0 2 -1 -3 -2 -1
-7 -3 -5 -5 -3 -2 1 2 -0 -1 -1 -4 -7 -3 -4 -5 -2 -4 -1 -0 -4 -9 -4 1 -0 -0 0 -3 -4 -2 -3 -2 -2 -2 -1 -1 -2 -3 -1 1 2 -2 1 3
Height
2989 2994 2999 3003 3008 3012 3015 3020 3024 3028 3032 3036 3032 3033 3041 3047 3050 3053 3056 3058 3061 3064 3065 3067 3069 3071 3073 3075 3077 3079 3083 3086 3088 3090 3090 3092 3095 3098 3102 3102 3101 3099 3096 3083
2974 2982 2988 2993 2997 3002 3009 3011 3016 3020 3023 3022 3021 3027 3034 3039 3043 3047 3050 3053 3056 3059 3062 3066 3066 3068 3070 3072 3075 3076 3078 3079 3083 3086 3090 3088 3088 3089 3091 3093 3093 3085 3093 3072
2961 2967 2976 2982 2986 2993 3000 3004 3007 3010 3009 3008 3014 3019 3026 3031 3036 3040 3044 3047 3050 3053 3057 3060 3062 3064 3067 3069 3071 3072 3073 3071 3072 3073 3076 3079 3079 3081 3083 3086 3083 3079 3066 3066
2950 2956 2962 2970 2975 2981 2989 2991 2992 2995 2994 2997 3005 3014 3018 3023 3026 3032 3035 3038 3041 3046 3052 3054 3055 3060 3064 3065 3067 3068 3067 3064 3067 3069 3072 3073 3074 3075 3076 3071 3069 3071 3051 3061
2939 2945 2950 2956 2963 2972 2976 2978 2979 2984 2987 2996 3001 3004 3003 3010 3020 3024 3026 3029 3037 3040 3041 3045 3050 3054 3056 3059 3060 3061 3059 3058 3061 3061 3063 3066 3065 3063 3061 3061 3063 3059 3053 3046
2931 2934 2941 2947 2950 2954 2955 2963 2971 2976 2980 2984 2990 2987 2995 3002 3012 3015 3021 3027 3030 3032 3033 3041 3043 3044 3047 3051 3053 3053 3054 3054 3055 3050 3057 3060 3054 3033 3044 3047 3045 3046 3042 3023
2917 2926 2932 2938 2941 2940 2946 2950 2958 2965 2965 2971 2973 2983 2988 2994 2999 3006 3014 3017 3019 3023 3029 3029 3029 3033 3035 3037 3038 3043 3043 3045 3049 3045 3053 3046 3009 3030 3031 3030 3029 3033 3029 3023
2909 2916 2922 2928 2932 2933 2936 2942 2947 2952 2955 2960 2969 2972 2978 2985 2991 2995 3000 3006 3010 3013 3018 3020 3019 3019 3020 3017 3021 3024 3029 3034 3036 3035 3031 3022 3010 3013 3017 3019 3010 3021 3018 3019
2899 2907 2911 2918 2920 2923 2931 2934 2939 2942 2947 2947 2958 2963 2969 2973 2978 2984 2984 2995 2997 2998 3003 3006 3004 3003 3003 3006 3004 3005 3014 3020 3023 3022 3018 3012 2978 3006 3011 3015 2998 3006 3009 3011
2892 2897 2904 2910 2914 2919 2925 2926 2927 2934 2938 2940 2947 2951 2954 2962 2967 2969 2974 2978 2982 2984 2986 2990 2990 2988 2991 2991 2991 2995 2999 3003 3003 3005 3005 2997 2989 2999 3003 3007 2994 2998 3000 3004
2887 2891 2896 2901 2906 2909 2913 2914 2917 2923 2928 2934 2939 2943 2948 2950 2955 2959 2963 2969 2966 2971 2974 2976 2975 2975 2975 2978 2976 2979 2983 2988 2988 2992 2995 2990 2984 2989 2986 2986 2986 2988 2988 2990
2883 2887 2891 2894 2898 2902 2905 2909 2911 2916 2919 2926 2929 2933 2937 2941 2945 2950 2950 2953 2953 2958 2959 2959 2960 2962 2963 2962 2966 2967 2971 2969 2974 2976 2972 2976 2975 2975 2974 2973 2974 2977 2979 2979
2879 2883 2886 2889 2892 2896 2900 2903 2908 2909 2915 2918 2919 2925 2930 2933 2936 2940 2944 2944 2948 2947 2949 2949 2948 2949 2950 2951 2951 2956 2957 2960 2962 2968 2965 2965 2966 2965 2964 2964 2964 2966 2967 2968
2879 2879 2884 2888 2891 2894 2897 2901 2904 2905 2910 2910 2912 2918 2924 2926 2928 2932 2934 2938 2941 2940 2942 2941 2940 2940 2941 2941 2943 2943 2947 2947 2950 2952 2953 2952 2952 2953 2953 2953 2954 2955 2956 2958
2881 2882 2885 2887 2889 2890 2892 2893 2895 2898 2907 2905 2910 2915 2917 2919 2921 2923 2926 2929 2931 2931 2932 2931 2931 2932 2935 2934 2934 2934 2935 2937 2939 2940 2942 2943 2942 2943 2945 2945 2945 2945 2946 2949
2883 2885 2886 2888 2888 2889 2891 2892 2895 2896 2899 2904 2907 2909 2912 2913 2910 2916 2919 2920 2920 2922 2923 2923 2923 2925 2928 2925 2924 2924 2925 2925 2926 2929 2931 2931 2932 2933 2934 2934 2934 2935 2935 2934
2885 2886 2887 2887 2889 2890 2892 2894 2895 2895 2898 2901 2902 2901 2900 2904 2908 2911 2912 2913 2914 2915 2914 2913 2917 2918 2917 2912 2912 2914 2916 2917 2917 2918 2919 2921 2923 2923 2924 2923 2923 2925 2926 2926
2886 2886 2887 2888 2888 2889 2890 2892 2893 2894 2895 2896 2897 2897 2901 2901 2902 2903 2904 2904 2905 2905 2906 2907 2907 2907 2906 2904 2905 2906 2906 2907 2907 2907 2908 2911 2912 2912 2912 2913 2914 2915 2916 2916
2887 2887 2887 2888 2889 2889 2889 2890 2891 2892 2896 2894 2895 2896 2898 2897 2897 2898 2899 2897 2897 2898 2897 2898 2900 2896 2894 2893 2895 2895 2895 2896 2897 2897 2898 2899 2900 2900 2900 2900 2901 2903 2903 2903
2887 2887 2887 2887 2888 2889 2890 2890 2891 2891 2891 2892 2892 2893 2894 2895 2893 2892 2894 2891 2892 2890 2890 2889 2887 2885 2883 2883 2884 2884 2884 2884 2885 2886 2886 2887 2886 2886 2886 2888 2888 2889 2888 2889
2887 2886 2886 2887 2887 2888 2889 2889 2890 2890 2890 2890 2890 2890 2889 2888 2888 2887 2888 2885 2886 2883 2882 2882 2877 2876 2875 2874 2873 2873 2872 2872 2871 2872 2872 2872 2872 2871 2871 2870 2871 2873 2874 2874
2886 2886 2886 2887 2887 2888 2890 2889 2891 2890 2890 2890 2888 2886 2884 2882 2880 2879 2878 2878 2877 2874 2873 2872 2868 2871 2869 2869 2868 2866 2865 2864 2862 2860 2859 2859 2858 2858 2858 2858 2858 2859 2859 2859
2886 2886 2886 2887 2889 2889 2890 2891 2892 2891 2889 2886 2883 2882 2880 2877 2877 2875 2874 2871 2869 2868 2866 2863 2867 2865 2864 2864 2863 2862 2859 2857 2856 2854 2852 2851 2850 2849 2849 2848 2848 2848 2847 2847
2887 2888 2888 2890 2891 2892 2892 2892 2891 2889 2886 2883 2880 2877 2875 2873 2873 2871 2870 2868 2867 2863 2861 2860 2860 2859 2857 2855 2854 2853 2852 2850 2848 2847 2846 2844 2843 2841 2840 2839 2838 2838 2837 2837
2889 2891 2892 2894 2894 2893 2892 2891 2890 2888 2885 2881 2876 2873 2873 2871 2871 2870 2869 2866 2863 2860 2859 2858 2856 2854 2851 2847 2844 2842 2840 2839 2838 2836 2834 2833 2832 2831 2831 2829 2829 2828 2827 2827
2893 2895 2897 2897 2895 2893 2892 2891 2889 2887 2883 2879 2874 2872 2871 2871 2871 2870 2868 2866 2862 2860 2856 2853 2850 2847 2844 2839 2835 2832 2829 2827 2825 2824 2822 2821 2820 2819 2819 2818 2817 2817 2818 2818
2897 2897 2897 2895 2893 2892 2890 2888 2887 2884 2882 2878 2875 2874 2872 2872 2870 2869 2867 2865 2861 2855 2850 2845 2841 2836 2833 2828 2824 2821 2818 2816 2814 2812 2811 2809 2808 2807 2806 2806 2806 2805 2807 2808